This is the latest recevied weather packets stored in our database for station/object WX5HOT. If no packets are shown the sender has not sent any weather packets the latest 10 day(s).
| Time | Temp. | Humidity | Pressure | Rain* | Wind** | Luminosity | Snow |
|---|---|---|---|---|---|---|---|
| 1778018774 | 20° C | 99% | 1056.3 hPa | 0 mm | - | 205 W/m² | - |
| 1778018472 | 20° C | 99% | 1056.4 hPa | 0 mm | - | 179 W/m² | - |
| 1778018169 | 20° C | 99% | 1056.6 hPa | 0 mm | - | 168 W/m² | - |
| 1778017867 | 20° C | 99% | 1056.6 hPa | 0 mm | - | 233 W/m² | - |
| 1778017565 | 20° C | 99% | 1056.7 hPa | 0 mm | - | 228 W/m² | - |
| 1778017262 | 20° C | 99% | 1056.7 hPa | 0 mm | - | 99 W/m² | - |
| 1778016960 | 20° C | 99% | 1056.9 hPa | 0 mm | - | 54 W/m² | - |
| 1778016656 | 20° C | 99% | 1056.9 hPa | 0 mm | - | 58 W/m² | - |
| 1778016352 | 20° C | 99% | 1056.7 hPa | 0 mm | - | 197 W/m² | - |
| 1778016050 | 20° C | 99% | 1056.5 hPa | 0 mm | - | 210 W/m² | - |
| 1778015746 | 20° C | 99% | 1056.4 hPa | 0 mm | - | 253 W/m² | - |
| 1778015443 | 20° C | 99% | 1056.4 hPa | 0 mm | - | 262 W/m² | - |
| 1778015140 | 20° C | 99% | 1056.3 hPa | 0 mm | - | 209 W/m² | - |
| 1778014837 | 20° C | 99% | 1056.1 hPa | 0 mm | - | 245 W/m² | - |
| 1778014535 | 20° C | 99% | 1056.5 hPa | 0 mm | - | 351 W/m² | - |
| 1778014232 | 19.44° C | 99% | 1056.7 hPa | 0 mm | - | 452 W/m² | - |
| 1778013929 | 18.89° C | 99% | 1057.1 hPa | 0 mm | - | 155 W/m² | - |
| 1778013626 | 18.89° C | 99% | 1057.4 hPa | 0 mm | - | 56 W/m² | - |
| 1778013323 | 18.89° C | 99% | 1057.5 hPa | 0 mm | - | 152 W/m² | - |
| 1778013020 | 18.89° C | 99% | 1057.5 hPa | 0 mm | - | 130 W/m² | - |
| 1778012716 | 19.44° C | 99% | 1057.3 hPa | 0 mm | - | 80 W/m² | - |
| 1778012412 | 19.44° C | 99% | 1057.2 hPa | 0 mm | - | 99 W/m² | - |
| 1778012109 | 19.44° C | 99% | 1057.2 hPa | 0 mm | - | 195 W/m² | - |
| 1778011807 | 18.89° C | 99% | 1057.1 hPa | 0 mm | - | 211 W/m² | - |
| 1778011505 | 18.89° C | 99% | 1057.1 hPa | 0 mm | - | 230 W/m² | - |
* Rain latest hour (hover to see other rain measurements)
** Current wind speed in m/s (hover to see current wind gust speed)